RH
39 39 41 44 45 48 49 48 49 52 56 58 57 53 50 49 49 51 52 54 54 55 55 57 59 61 63 65 66 67 69 70 69 69 68 66 65 64 63 62 61 61
39 40 42 46 49 53 55 55 55 56 58 56 52 50 48 49 51 51 53 53 53 54 57 60 62 63 64 66 68 70 72 72 72 72 71 69 68 67 65 65 63 62
40 40 42 45 49 55 58 58 57 55 53 51 48 49 50 51 51 51 52 52 54 58 61 63 63 63 66 69 71 73 75 76 75 74 73 72 71 70 68 67 65 64
40 40 41 42 45 49 51 51 51 49 49 49 49 50 51 51 52 52 53 54 58 61 62 61 62 65 69 72 75 77 78 79 78 77 76 74 73 72 71 69 68 66
40 41 42 43 44 46 47 47 48 49 49 50 50 50 50 51 53 53 55 57 60 61 60 61 64 68 71 72 76 80 82 83 82 80 79 77 76 75 73 72 71 69
40 41 42 43 44 45 46 47 48 49 50 50 50 51 51 53 55 56 56 58 59 59 59 62 65 68 70 71 76 83 85 85 84 83 82 80 79 78 76 75 72 71
40 41 42 44 45 45 47 47 48 50 51 51 51 52 53 55 55 54 54 57 59 59 60 63 67 70 70 71 77 85 88 87 86 85 84 84 84 83 81 79 76 74
40 42 43 44 44 45 47 48 49 50 50 51 52 53 54 55 54 52 53 57 59 58 62 67 70 73 72 73 80 88 91 90 89 88 87 87 87 87 85 83 82 79
40 42 42 44 44 45 47 48 49 50 51 52 53 54 55 54 53 53 56 59 59 61 66 70 72 75 77 77 81 89 93 94 93 92 91 91 92 93 92 90 88 86
41 42 43 44 45 45 47 47 48 50 51 53 54 56 57 55 54 56 58 59 61 65 69 72 75 79 81 83 86 92 97 97 98 97 95 95 95 95 95 94 93 92
41 42 44 44 45 47 47 48 49 50 52 54 56 58 58 57 58 59 59 61 65 69 73 76 79 84 87 90 94 98 100 99 99 99 98 98 98 97 98 97 97 97
42 43 44 46 47 47 49 49 50 52 54 56 58 59 59 59 59 59 61 65 70 73 76 78 83 91 95 97 99 100 100 99 99 99 99 100 99 99 100 100 99 98
42 44 45 46 48 49 50 52 53 55 56 58 59 59 59 59 61 63 65 70 74 76 78 83 90 98 100 100 100 100 100 100 100 100 100 100 100 100 100 101 100 97
42 45 46 47 49 50 51 53 56 58 58 59 61 61 61 62 63 66 70 74 77 78 82 91 98 101 101 100 101 100 100 101 100 100 100 100 100 100 100 101 100 97
43 46 47 48 50 52 54 56 58 60 60 60 62 63 63 64 66 70 75 77 79 81 87 95 101 101 100 100 101 100 101 100 100 100 101 100 100 100 100 100 100 97
45 48 48 50 52 53 56 59 59 62 63 64 65 66 66 67 71 76 79 78 81 85 88 95 100 101 100 101 100 100 101 101 100 100 100 100 100 100 100 101 100 98
47 49 49 51 54 55 58 60 61 65 67 67 67 68 70 73 77 80 80 81 84 87 90 97 101 101 101 101 100 100 100 100 100 100 100 100 100 100 100 100 100 100
48 50 51 52 55 57 59 61 63 67 70 70 69 72 76 80 81 82 82 84 87 90 95 98 99 99 101 101 100 100 100 100 100 100 100 100 100 100 100 99 100 100
49 51 54 54 55 58 61 63 65 69 72 73 73 76 81 82 83 84 85 88 92 96 99 99 96 96 100 102 101 99 100 100 100 100 100 100 100 100 100 100 100 100
51 53 55 56 57 60 63 66 69 71 73 75 76 80 83 84 85 87 88 91 98 101 102 100 94 90 95 101 101 100 100 100 100 100 100 100 100 100 100 100 100 100
54 56 57 59 60 62 66 68 70 72 74 76 80 82 84 85 86 89 91 96 101 102 103 100 91 88 96 101 100 100 100 100 100 100 100 100 100 100 99 99 100 100
56 59 61 62 63 65 69 70 71 74 76 79 82 84 85 89 92 95 98 101 101 100 102 100 92 92 100 102 100 100 100 100 100 100 100 100 100 98 97 98 99 98
58 62 64 66 67 69 71 71 72 75 79 82 86 88 91 96 100 100 101 103 102 100 101 101 93 89 92 96 99 101 100 100 100 100 100 100 99 99 99 99 98 93
61 64 66 68 70 71 72 73 74 77 82 86 88 91 95 99 102 102 101 102 101 99 100 101 93 83 82 91 100 101 99 100 100 100 101 99 99 99 95 94 97 91
62 66 68 70 72 72 72 74 76 79 83 87 90 95 99 102 103 103 102 101 100 99 100 102 98 88 83 91 100 100 99 101 100 99 100 99 100 99 91 89 98 96
63 67 69 71 72 73 74 75 77 81 85 90 95 99 102 103 102 102 101 100 100 101 100 99 98 91 83 85 95 100 100 100 99 99 101 100 100 100 96 94 97 96
Wind_Speed
25 25 25 25 24 23 22 22 22 19 18 17 16 17 16 15 15 14 14 13 13 13 13 13 12 12 13 13 13 14 14 14 15 14 14 15 15 16 16 17 17 17
26 25 25 24 23 21 20 21 21 20 20 19 18 18 17 16 15 14 14 14 14 14 13 12 13 14 15 15 15 15 15 16 16 15 15 16 16 16 17 17 17 18
26 26 26 25 23 21 20 22 22 22 22 21 20 18 17 16 16 15 15 15 14 14 13 13 15 15 16 16 16 16 17 17 17 16 16 17 17 17 18 18 18 19
26 26 27 26 25 24 23 23 22 21 21 21 20 18 17 17 16 16 16 15 14 14 15 15 16 16 16 16 16 17 18 18 17 17 17 18 19 19 19 19 19 20
27 26 26 26 25 24 23 22 21 20 20 20 20 19 18 17 17 16 16 15 15 16 16 16 16 16 16 17 17 18 18 18 17 17 18 19 19 19 19 19 20 21
27 26 25 25 25 25 23 22 22 20 20 20 20 20 19 18 17 17 17 17 17 18 17 17 18 18 17 17 17 18 18 18 17 16 17 19 19 19 19 19 20 21
28 26 25 25 25 25 24 24 23 22 22 22 22 21 20 19 19 19 19 19 19 19 19 19 19 19 18 18 17 18 18 18 18 18 18 19 19 19 19 19 20 21
28 26 25 24 25 25 25 25 25 24 24 23 23 23 22 21 21 20 19 19 20 20 20 20 20 20 19 18 17 17 17 17 17 17 18 19 19 20 20 20 20 22
28 27 25 25 26 27 28 27 26 25 25 25 25 24 23 23 22 20 19 20 20 21 21 20 21 20 20 19 19 19 19 18 18 18 19 19 19 20 20 19 20 22
29 27 26 26 27 28 29 29 28 27 26 26 25 24 24 23 21 20 20 20 21 21 21 21 21 21 21 21 20 20 20 20 20 21 21 21 21 22 22 21 22 23
29 28 27 28 28 28 29 29 29 28 28 27 25 25 24 23 21 21 21 21 21 21 21 22 22 21 21 21 19 18 18 19 19 20 21 21 22 23 23 22 23 24
30 29 28 28 28 28 28 28 28 28 27 26 25 24 24 23 22 22 22 21 21 21 22 22 22 21 20 19 18 17 18 19 19 19 20 21 23 24 24 24 24 25
32 30 29 28 28 28 27 26 26 26 26 26 24 24 24 23 23 22 22 22 22 22 22 22 22 20 19 18 17 17 18 19 19 19 19 20 22 24 25 25 26 26
33 30 29 28 27 27 26 25 25 25 25 25 24 24 24 24 23 23 22 22 22 22 22 21 20 19 19 19 19 19 20 19 19 18 19 20 21 23 24 25 25 26
33 29 28 27 26 26 25 24 24 24 24 24 24 24 24 24 23 23 23 23 22 23 23 21 19 19 19 20 20 21 21 20 19 19 20 20 21 23 24 25 25 25
32 29 28 27 26 26 25 24 23 23 23 24 24 24 24 24 23 23 23 23 23 24 24 23 23 22 20 20 21 21 21 21 20 21 21 22 24 26 26 26 27 27
31 29 28 27 26 25 25 23 22 22 22 23 23 23 24 24 24 23 23 24 24 25 25 25 26 25 23 22 22 21 21 22 22 23 24 25 27 29 29 29 29 29
31 28 28 28 27 25 24 23 22 22 22 22 23 23 23 23 23 24 24 24 24 25 26 26 27 26 24 24 24 23 23 23 23 23 23 24 28 30 31 32 31 31
32 29 28 28 28 25 24 23 22 23 22 22 23 23 23 23 23 23 24 24 24 25 26 27 28 27 25 24 24 24 23 23 23 23 23 24 25 27 30 31 31 31
31 29 28 28 27 25 24 23 23 23 23 23 23 23 23 23 23 24 25 25 24 25 26 27 28 27 24 24 24 23 23 22 22 23 23 25 27 28 30 31 31 30
31 29 28 28 27 25 24 25 25 24 23 23 23 23 23 23 24 24 25 24 24 25 26 28 28 25 22 22 23 22 22 22 22 23 24 26 28 29 31 32 32 32
31 29 27 27 26 25 25 26 25 25 24 23 23 23 23 22 23 23 24 23 23 23 23 25 26 23 21 22 22 22 22 21 21 22 23 25 27 28 30 30 28 24
31 29 27 26 26 26 26 26 25 24 24 22 22 21 21 20 21 21 21 20 20 20 21 24 25 23 21 21 21 21 21 20 20 20 21 24 26 26 24 20 15 10
31 29 27 26 26 26 26 26 25 24 23 22 21 20 20 19 19 19 20 20 20 22 22 23 25 24 20 19 20 20 20 19 19 19 20 22 22 19 16 12 11 11
30 29 27 26 26 26 26 25 25 23 22 20 19 20 20 20 20 20 21 21 21 22 21 21 23 24 19 17 18 19 19 18 18 19 18 18 15 12 11 10 10 12
31 29 28 27 26 26 25 24 23 22 20 19 19 19 19 18 18 17 18 19 19 20 21 21 23 23 20 16 17 18 18 18 18 17 14 12 11 10 10 10 10 12
Wind_Direction
255 255 252 252 253 253 252 252 251 250 247 244 244 251 257 260 261 262 264 265 266 270 275 277 277 279 279 280 280 278 277 274 272 272 271 270 269 268 268 267 266 265
253 252 250 249 249 248 246 246 248 248 247 247 250 255 259 258 259 261 261 261 265 270 272 272 273 277 281 281 281 278 276 274 271 269 267 265 265 265 265 266 266 265
250 249 248 247 246 243 242 243 245 247 249 251 253 255 255 256 258 260 259 260 265 266 264 267 274 279 281 281 281 279 275 273 271 269 266 264 263 263 263 264 264 264
248 248 249 249 247 245 244 245 246 245 247 250 252 251 251 255 259 260 260 260 259 260 263 270 276 278 280 282 282 280 277 274 271 269 266 264 263 262 262 262 262 262
247 248 249 250 248 245 242 243 243 241 244 247 248 250 252 255 258 257 258 257 256 261 267 272 274 276 280 283 284 281 278 275 271 268 265 264 263 261 261 261 260 261
246 247 248 248 246 243 241 241 241 240 242 245 247 250 253 254 254 254 256 258 260 264 269 271 273 276 280 284 285 281 277 274 271 267 264 263 262 261 260 259 259 260
245 247 249 248 245 242 241 241 242 241 243 246 249 251 252 253 253 254 257 259 262 265 269 270 272 275 279 282 282 279 275 272 268 266 263 262 261 259 257 256 257 259
243 246 247 246 243 241 241 242 243 244 246 249 251 252 253 254 254 255 256 258 262 266 268 269 270 273 276 276 273 270 268 267 264 262 260 259 259 258 257 257 257 259
241 244 245 244 243 242 243 244 245 247 249 250 252 254 255 255 254 252 253 257 262 265 266 267 269 271 271 270 266 261 259 259 258 257 257 258 257 256 256 257 257 257
239 241 242 243 244 244 245 245 247 249 250 251 253 255 255 254 252 250 251 256 259 261 263 266 269 269 269 267 263 258 255 255 255 256 256 257 257 258 258 258 257 257
237 239 240 242 244 244 245 246 249 250 251 253 253 253 252 251 250 249 251 254 256 258 262 265 267 268 266 264 259 252 249 251 253 253 254 255 256 257 258 257 255 256
235 237 238 241 243 243 244 247 249 250 252 252 251 250 250 249 248 249 252 253 254 258 261 264 266 264 259 255 252 248 247 248 250 252 253 255 256 257 257 256 255 255
234 235 237 240 241 242 243 246 248 249 250 249 248 249 248 247 247 249 252 253 255 259 263 265 263 257 250 247 246 247 246 247 249 251 253 254 256 257 257 256 256 256
234 235 237 240 240 241 242 244 246 248 249 248 247 248 247 246 247 250 252 254 257 261 263 262 257 250 246 244 245 246 245 245 247 248 251 254 255 257 257 256 256 257
234 235 237 238 238 239 239 241 244 247 247 247 246 245 245 247 249 250 252 256 260 263 262 259 252 246 244 244 246 247 245 244 245 246 249 253 254 257 259 258 258 258
232 233 235 236 235 236 237 238 242 244 245 244 243 243 245 248 249 250 253 259 262 263 262 258 252 248 245 243 244 247 248 250 252 253 255 258 260 262 262 262 261 261
229 231 233 233 233 234 235 237 240 240 241 241 241 243 246 246 248 252 256 260 262 263 262 258 254 250 249 248 246 245 247 251 255 259 261 263 263 264 265 265 264 263
227 228 229 231 232 233 235 237 238 237 238 239 241 243 244 245 249 255 259 262 263 263 261 258 256 254 252 252 251 248 246 247 249 252 254 257 260 263 266 268 266 264
224 225 227 229 231 233 235 236 236 234 235 237 240 241 243 247 252 257 261 263 263 261 259 259 258 257 255 254 253 252 249 246 247 248 248 250 254 260 264 266 265 264
222 223 225 228 230 231 232 233 232 233 235 238 240 241 244 250 255 260 263 263 261 260 260 260 261 261 258 255 253 252 250 248 248 249 250 252 254 257 260 262 263 262
219 221 224 226 228 228 230 230 231 234 237 238 240 242 247 253 258 262 264 263 261 261 261 262 263 262 258 255 254 253 252 251 250 250 251 254 256 258 259 262 264 264
217 218 221 223 225 226 228 229 232 235 237 238 240 244 250 256 260 261 262 263 263 262 261 263 264 261 257 255 255 255 254 253 253 252 253 255 258 260 263 265 267 269
216 217 219 220 222 224 226 229 232 236 237 237 239 244 249 254 257 259 261 261 261 259 259 262 265 263 258 257 256 255 254 254 254 253 254 257 258 261 264 269 275 285
216 216 217 218 220 222 226 229 232 235 237 238 240 245 250 252 255 259 261 259 259 259 260 263 267 267 262 257 256 255 253 253 254 254 256 258 258 259 262 269 280 287
216 216 217 218 220 223 226 229 232 234 236 240 243 247 251 253 256 260 262 261 262 263 262 262 266 269 264 256 256 257 254 254 255 255 257 259 260 262 264 266 277 284
219 218 218 219 221 225 228 230 232 233 236 239 242 246 249 253 255 256 257 260 262 264 265 264 265 267 265 257 256 258 256 254 255 253 253 259 264 267 271 272 277 284